Year,Month,Day,Hour,Minute,Value (Times are PST for temperature in C)
2016,08,26,00,00,18.40
2016,08,26,00,01,18.40
2016,08,26,00,02,18.40
2016,08,26,00,03,18.40
2016,08,26,00,04,18.40
2016,08,26,00,05,18.40
2016,08,26,00,06,18.30
2016,08,26,00,07,18.30
2016,08,26,00,08,18.30
2016,08,26,00,09,18.30
2016,08,26,00,10,18.30
2016,08,26,00,11,18.30
2016,08,26,00,12,18.30
2016,08,26,00,13,18.30
2016,08,26,00,14,18.30
2016,08,26,00,15,18.40
2016,08,26,00,16,18.40
2016,08,26,00,17,18.30
2016,08,26,00,18,18.30
2016,08,26,00,19,18.30
2016,08,26,00,20,18.30
2016,08,26,00,21,18.30
2016,08,26,00,22,18.30
2016,08,26,00,23,18.30
2016,08,26,00,24,18.30
2016,08,26,00,25,18.30
2016,08,26,00,26,18.30
2016,08,26,00,27,18.20
2016,08,26,00,28,18.20
2016,08,26,00,29,18.20
2016,08,26,00,30,18.30
2016,08,26,00,31,18.30
2016,08,26,00,32,18.30
2016,08,26,00,33,18.30
2016,08,26,00,34,18.30
2016,08,26,00,35,18.30
2016,08,26,00,36,18.30
2016,08,26,00,37,18.30
2016,08,26,00,38,18.40
2016,08,26,00,39,18.40
2016,08,26,00,40,18.40
2016,08,26,00,41,18.30
2016,08,26,00,42,18.30
2016,08,26,00,43,18.40
2016,08,26,00,44,18.40
2016,08,26,00,45,18.40
2016,08,26,00,46,18.40
2016,08,26,00,47,18.40
2016,08,26,00,48,18.40
2016,08,26,00,49,18.40
2016,08,26,00,50,18.40
2016,08,26,00,51,18.40
2016,08,26,00,52,18.40
2016,08,26,00,53,18.40
2016,08,26,00,54,18.40
2016,08,26,00,55,18.40
2016,08,26,00,56,18.30
2016,08,26,00,57,18.30
2016,08,26,00,58,18.30
2016,08,26,00,59,18.20
2016,08,26,01,00,18.20
2016,08,26,01,01,18.20
2016,08,26,01,02,18.20
2016,08,26,01,03,18.20
2016,08,26,01,04,18.20
2016,08,26,01,05,18.20
2016,08,26,01,06,18.20
2016,08,26,01,07,18.20
2016,08,26,01,08,18.20
2016,08,26,01,09,18.20
2016,08,26,01,10,18.10
2016,08,26,01,11,18.10
2016,08,26,01,12,18.10
2016,08,26,01,13,18.10
2016,08,26,01,14,18.00
2016,08,26,01,15,17.90
2016,08,26,01,16,17.90
2016,08,26,01,17,17.90
2016,08,26,01,18,17.90
2016,08,26,01,19,17.90
2016,08,26,01,20,17.90
2016,08,26,01,21,17.80
2016,08,26,01,22,17.80
2016,08,26,01,23,17.80
2016,08,26,01,24,17.80
2016,08,26,01,25,17.70
2016,08,26,01,26,17.70
2016,08,26,01,27,17.70
2016,08,26,01,28,17.70
2016,08,26,01,29,17.70
2016,08,26,01,30,17.60
2016,08,26,01,31,17.60
2016,08,26,01,32,17.60
2016,08,26,01,33,17.60
2016,08,26,01,34,17.50
2016,08,26,01,35,17.50
2016,08,26,01,36,17.50
2016,08,26,01,37,17.50
2016,08,26,01,38,17.50
2016,08,26,01,39,17.60
2016,08,26,01,40,17.60
2016,08,26,01,41,17.70
2016,08,26,01,42,17.70
2016,08,26,01,43,17.70
2016,08,26,01,44,17.80
2016,08,26,01,45,17.80
2016,08,26,01,46,17.80
2016,08,26,01,47,17.80
2016,08,26,01,48,17.80
2016,08,26,01,49,17.80
2016,08,26,01,50,17.70
2016,08,26,01,51,17.70
2016,08,26,01,52,17.70
2016,08,26,01,53,17.60
2016,08,26,01,54,17.60
2016,08,26,01,55,17.60
2016,08,26,01,56,17.50
2016,08,26,01,57,17.50
2016,08,26,01,58,17.40
2016,08,26,01,59,17.40
2016,08,26,02,00,17.30
2016,08,26,02,01,17.30
2016,08,26,02,02,17.30
2016,08,26,02,03,17.30
2016,08,26,02,04,17.30
2016,08,26,02,05,17.30
2016,08,26,02,06,17.30
2016,08,26,02,07,17.30
2016,08,26,02,08,17.30
2016,08,26,02,09,17.30
2016,08,26,02,10,17.30
2016,08,26,02,11,17.30
2016,08,26,02,12,17.30
2016,08,26,02,13,17.30
2016,08,26,02,14,17.30
2016,08,26,02,15,17.30
2016,08,26,02,16,17.30
2016,08,26,02,17,17.30
2016,08,26,02,18,17.30
2016,08,26,02,19,17.30
2016,08,26,02,20,17.30
2016,08,26,02,21,17.30
2016,08,26,02,22,17.30
2016,08,26,02,23,17.30
2016,08,26,02,24,17.20
2016,08,26,02,25,17.20
2016,08,26,02,26,17.20
2016,08,26,02,27,17.20
2016,08,26,02,28,17.20
2016,08,26,02,29,17.20
2016,08,26,02,30,17.10
2016,08,26,02,31,17.10
2016,08,26,02,32,17.10
2016,08,26,02,33,17.10
2016,08,26,02,34,17.10
2016,08,26,02,35,17.10
2016,08,26,02,36,17.10
2016,08,26,02,37,17.10
2016,08,26,02,38,17.10
2016,08,26,02,39,17.10
2016,08,26,02,40,17.10
2016,08,26,02,41,17.10
2016,08,26,02,42,17.10
2016,08,26,02,43,17.10
2016,08,26,02,44,17.10
2016,08,26,02,45,17.10
2016,08,26,02,46,17.10
2016,08,26,02,47,17.10
2016,08,26,02,48,17.00
2016,08,26,02,49,17.00
2016,08,26,02,50,17.00
2016,08,26,02,51,17.00
2016,08,26,02,52,17.00
2016,08,26,02,53,16.90
2016,08,26,02,54,16.90
2016,08,26,02,55,16.90
2016,08,26,02,56,16.90
2016,08,26,02,57,16.80
2016,08,26,02,58,16.80
2016,08,26,02,59,16.80
2016,08,26,03,00,16.80
2016,08,26,03,01,16.80
2016,08,26,03,02,16.90
2016,08,26,03,03,16.90
2016,08,26,03,04,16.90
2016,08,26,03,05,16.90
2016,08,26,03,06,17.00
2016,08,26,03,07,17.00
2016,08,26,03,08,17.00
2016,08,26,03,09,17.00
2016,08,26,03,10,17.10
2016,08,26,03,11,17.10
2016,08,26,03,12,17.10
2016,08,26,03,13,17.20
2016,08,26,03,14,17.20
2016,08,26,03,15,17.30
2016,08,26,03,16,17.30
2016,08,26,03,17,17.40
2016,08,26,03,18,17.50
2016,08,26,03,19,17.50
2016,08,26,03,20,17.60
2016,08,26,03,21,17.70
2016,08,26,03,22,17.70
2016,08,26,03,23,17.80
2016,08,26,03,24,17.70
2016,08,26,03,25,17.70
2016,08,26,03,26,17.60
2016,08,26,03,27,17.50
2016,08,26,03,28,17.50
2016,08,26,03,29,17.50
2016,08,26,03,30,17.50
2016,08,26,03,31,17.60
2016,08,26,03,32,17.70
2016,08,26,03,33,17.70
2016,08,26,03,34,17.70
2016,08,26,03,35,17.70
2016,08,26,03,36,17.70
2016,08,26,03,37,17.70
2016,08,26,03,38,17.70
2016,08,26,03,39,17.70
2016,08,26,03,40,17.80
2016,08,26,03,41,17.80
2016,08,26,03,42,17.80
2016,08,26,03,43,17.80
2016,08,26,03,44,17.80
2016,08,26,03,45,17.80
2016,08,26,03,46,17.80
2016,08,26,03,47,17.80
2016,08,26,03,48,17.80
2016,08,26,03,49,17.70
2016,08,26,03,50,17.70
2016,08,26,03,51,17.70
2016,08,26,03,52,17.80
2016,08,26,03,53,17.80
2016,08,26,03,54,17.80
2016,08,26,03,55,17.80
2016,08,26,03,56,17.80
2016,08,26,03,57,17.80
2016,08,26,03,58,17.80
2016,08,26,03,59,17.80
2016,08,26,04,00,17.80
2016,08,26,04,01,17.80
2016,08,26,04,02,17.70
2016,08,26,04,03,17.70
2016,08,26,04,04,17.70
2016,08,26,04,05,17.60
2016,08,26,04,06,17.60
2016,08,26,04,07,17.50
2016,08,26,04,08,17.50
2016,08,26,04,09,17.40
2016,08,26,04,10,17.40
2016,08,26,04,11,17.30
2016,08,26,04,12,17.30
2016,08,26,04,13,17.20
2016,08,26,04,14,17.20
2016,08,26,04,15,17.10
2016,08,26,04,16,17.10
2016,08,26,04,17,17.10
2016,08,26,04,18,17.00
2016,08,26,04,19,17.00
2016,08,26,04,20,17.00
2016,08,26,04,21,17.00
2016,08,26,04,22,17.00
2016,08,26,04,23,17.00
2016,08,26,04,24,17.00
2016,08,26,04,25,17.00
2016,08,26,04,26,17.00
2016,08,26,04,27,17.00
2016,08,26,04,28,17.00
2016,08,26,04,29,17.00
2016,08,26,04,30,17.00
2016,08,26,04,31,17.00
2016,08,26,04,32,17.00
2016,08,26,04,33,17.00
2016,08,26,04,34,16.90
2016,08,26,04,35,16.90
2016,08,26,04,36,16.90
2016,08,26,04,37,16.90
2016,08,26,04,38,16.80
2016,08,26,04,39,16.80
2016,08,26,04,40,16.70
2016,08,26,04,41,16.70
2016,08,26,04,42,16.70
2016,08,26,04,43,16.70
2016,08,26,04,44,16.70
2016,08,26,04,45,16.60
2016,08,26,04,46,16.60
2016,08,26,04,47,16.60
2016,08,26,04,48,16.60
2016,08,26,04,49,16.60
2016,08,26,04,50,16.60
2016,08,26,04,51,16.60
2016,08,26,04,52,16.60
2016,08,26,04,53,16.70
2016,08,26,04,54,16.70
2016,08,26,04,55,16.70
2016,08,26,04,56,16.70
2016,08,26,04,57,16.70
2016,08,26,04,58,16.70
2016,08,26,04,59,16.70
2016,08,26,05,00,16.70
2016,08,26,05,01,16.70
2016,08,26,05,02,16.70
2016,08,26,05,03,16.70
2016,08,26,05,04,16.70
2016,08,26,05,05,16.70
2016,08,26,05,06,16.60
2016,08,26,05,07,16.60
2016,08,26,05,08,16.40
2016,08,26,05,09,16.40
2016,08,26,05,10,16.40
2016,08,26,05,11,16.40
2016,08,26,05,12,16.40
2016,08,26,05,13,16.40
2016,08,26,05,14,16.30
2016,08,26,05,15,16.30
2016,08,26,05,16,16.30
2016,08,26,05,17,16.30
2016,08,26,05,18,16.30
2016,08,26,05,19,16.30
2016,08,26,05,20,16.20
2016,08,26,05,21,16.20
2016,08,26,05,22,16.20
2016,08,26,05,23,16.20
2016,08,26,05,24,16.20
2016,08,26,05,25,16.20
2016,08,26,05,26,16.30
2016,08,26,05,27,16.30
2016,08,26,05,28,16.30
2016,08,26,05,29,16.30
2016,08,26,05,30,16.30
2016,08,26,05,31,16.30
2016,08,26,05,32,16.20
2016,08,26,05,33,16.20
2016,08,26,05,34,16.20
2016,08,26,05,35,16.20
2016,08,26,05,36,16.20
2016,08,26,05,37,16.20
2016,08,26,05,38,16.10
2016,08,26,05,39,16.10
2016,08,26,05,40,16.10
2016,08,26,05,41,16.10
2016,08,26,05,42,16.00
2016,08,26,05,43,15.90
2016,08,26,05,44,15.90
2016,08,26,05,45,15.80
2016,08,26,05,46,15.80
2016,08,26,05,47,15.80
2016,08,26,05,48,15.70
2016,08,26,05,49,15.70
2016,08,26,05,50,15.70
2016,08,26,05,51,15.60
2016,08,26,05,52,15.60
2016,08,26,05,53,15.60
2016,08,26,05,54,15.60
2016,08,26,05,55,15.50
2016,08,26,05,56,15.50
2016,08,26,05,57,15.50
2016,08,26,05,58,15.40
2016,08,26,05,59,15.40
2016,08,26,06,00,15.40
2016,08,26,06,01,15.30
2016,08,26,06,02,15.30
2016,08,26,06,03,15.30
2016,08,26,06,04,15.30
2016,08,26,06,05,15.30
2016,08,26,06,06,15.30
2016,08,26,06,07,15.20
2016,08,26,06,08,15.20
2016,08,26,06,09,15.20
2016,08,26,06,10,15.20
2016,08,26,06,11,15.10
2016,08,26,06,12,15.10
2016,08,26,06,13,15.10
2016,08,26,06,14,15.10
2016,08,26,06,15,15.00
2016,08,26,06,16,15.00
2016,08,26,06,17,15.00
2016,08,26,06,18,15.00
2016,08,26,06,19,15.00
2016,08,26,06,20,14.90
2016,08,26,06,21,14.90
2016,08,26,06,22,14.90
2016,08,26,06,23,14.90
2016,08,26,06,24,14.90
2016,08,26,06,25,14.80
2016,08,26,06,26,14.80
2016,08,26,06,27,14.80
2016,08,26,06,28,14.80
2016,08,26,06,29,14.80
2016,08,26,06,30,14.80
2016,08,26,06,31,14.80
2016,08,26,06,32,14.80
2016,08,26,06,33,14.80
2016,08,26,06,34,14.80
2016,08,26,06,35,14.80
2016,08,26,06,36,14.80
2016,08,26,06,37,14.80
2016,08,26,06,38,14.90
2016,08,26,06,39,14.90
2016,08,26,06,40,14.90
2016,08,26,06,41,14.90
2016,08,26,06,42,14.90
2016,08,26,06,43,14.90
2016,08,26,06,44,14.90
2016,08,26,06,45,14.90
2016,08,26,06,46,14.90
2016,08,26,06,47,14.90
2016,08,26,06,48,15.00
2016,08,26,06,49,15.00
2016,08,26,06,50,15.10
2016,08,26,06,51,15.10
2016,08,26,06,52,15.10
2016,08,26,06,53,15.20
2016,08,26,06,54,15.20
2016,08,26,06,55,15.30
2016,08,26,06,56,15.30
2016,08,26,06,57,15.30
2016,08,26,06,58,15.30
2016,08,26,06,59,15.30
2016,08,26,07,00,15.30
2016,08,26,07,01,15.40
2016,08,26,07,02,15.40
2016,08,26,07,03,15.40
2016,08,26,07,04,15.40
2016,08,26,07,05,15.40
2016,08,26,07,06,15.40
2016,08,26,07,07,15.50
2016,08,26,07,08,15.50
2016,08,26,07,09,15.50
2016,08,26,07,10,15.50
2016,08,26,07,11,15.50
2016,08,26,07,12,15.50
2016,08,26,07,13,15.60
2016,08,26,07,14,15.60
2016,08,26,07,15,15.60
2016,08,26,07,16,15.70
2016,08,26,07,17,15.70
2016,08,26,07,18,15.70
2016,08,26,07,19,15.80
2016,08,26,07,20,15.80
2016,08,26,07,21,15.80
2016,08,26,07,22,15.80
2016,08,26,07,23,15.80
2016,08,26,07,24,15.90
2016,08,26,07,25,15.90
2016,08,26,07,26,15.90
2016,08,26,07,27,15.90
2016,08,26,07,28,16.00
2016,08,26,07,29,16.10
2016,08,26,07,30,16.10
2016,08,26,07,31,16.10
2016,08,26,07,32,16.10
2016,08,26,07,33,16.10
2016,08,26,07,34,16.10
2016,08,26,07,35,16.10
2016,08,26,07,36,16.10
2016,08,26,07,37,16.10
2016,08,26,07,38,16.10
2016,08,26,07,39,16.10
2016,08,26,07,40,16.10
2016,08,26,07,41,16.10
2016,08,26,07,42,16.10
2016,08,26,07,43,16.20
2016,08,26,07,44,16.20
2016,08,26,07,45,16.20
2016,08,26,07,46,16.20
2016,08,26,07,47,16.30
2016,08,26,07,48,16.30
2016,08,26,07,49,16.30
2016,08,26,07,50,16.40
2016,08,26,07,51,16.40
2016,08,26,07,52,16.40
2016,08,26,07,53,16.40
2016,08,26,07,54,16.40
2016,08,26,07,55,16.60
2016,08,26,07,56,16.60
2016,08,26,07,57,16.60
2016,08,26,07,58,16.70
2016,08,26,07,59,16.70
2016,08,26,08,00,16.70
2016,08,26,08,01,16.70
2016,08,26,08,02,16.70
2016,08,26,08,03,16.70
2016,08,26,08,04,16.80
2016,08,26,08,05,16.80
2016,08,26,08,06,16.90
2016,08,26,08,07,16.90
2016,08,26,08,08,17.00
2016,08,26,08,09,17.00
2016,08,26,08,10,17.10
2016,08,26,08,11,17.10
2016,08,26,08,12,17.20
2016,08,26,08,13,17.30
2016,08,26,08,14,17.30
2016,08,26,08,15,17.30
2016,08,26,08,16,17.40
2016,08,26,08,17,17.40
2016,08,26,08,18,17.50
2016,08,26,08,19,17.60
2016,08,26,08,20,17.60
2016,08,26,08,21,17.70
2016,08,26,08,22,17.70
2016,08,26,08,23,17.80
2016,08,26,08,24,17.80
2016,08,26,08,25,17.90
2016,08,26,08,26,17.90
2016,08,26,08,27,17.90
2016,08,26,08,28,18.00
2016,08,26,08,29,18.10
2016,08,26,08,30,18.10
2016,08,26,08,31,18.20
2016,08,26,08,32,18.20
2016,08,26,08,33,18.30
2016,08,26,08,34,18.40
2016,08,26,08,35,18.50
2016,08,26,08,36,18.60
2016,08,26,08,37,18.60
2016,08,26,08,38,18.70
2016,08,26,08,39,18.80
2016,08,26,08,40,18.90
2016,08,26,08,41,18.90
2016,08,26,08,42,19.00
2016,08,26,08,43,19.10
2016,08,26,08,44,19.10
2016,08,26,08,45,19.20
2016,08,26,08,46,19.30
2016,08,26,08,47,19.40
2016,08,26,08,48,19.40
2016,08,26,08,49,19.50
2016,08,26,08,50,19.60
2016,08,26,08,51,19.70
2016,08,26,08,52,19.80
2016,08,26,08,53,19.90
2016,08,26,08,54,19.90
2016,08,26,08,55,20.00
2016,08,26,08,56,20.10
2016,08,26,08,57,20.20
2016,08,26,08,58,20.20
2016,08,26,08,59,20.30
2016,08,26,09,00,20.40
2016,08,26,09,01,20.50
2016,08,26,09,02,20.60
2016,08,26,09,03,20.80
2016,08,26,09,04,20.90
2016,08,26,09,05,21.00
2016,08,26,09,06,21.20
2016,08,26,09,07,21.30
2016,08,26,09,08,21.40
2016,08,26,09,09,21.60
2016,08,26,09,10,21.60
2016,08,26,09,11,21.70
2016,08,26,09,12,21.70
2016,08,26,09,13,21.80
2016,08,26,09,14,21.80
2016,08,26,09,15,21.80
2016,08,26,09,16,21.80
2016,08,26,09,17,21.80
2016,08,26,09,18,21.80
2016,08,26,09,19,21.80
2016,08,26,09,20,21.90
2016,08,26,09,21,21.90
2016,08,26,09,22,21.90
2016,08,26,09,23,21.90
2016,08,26,09,24,21.90
2016,08,26,09,25,21.80
2016,08,26,09,26,21.80
2016,08,26,09,27,21.70
2016,08,26,09,28,21.60
2016,08,26,09,29,21.60
2016,08,26,09,30,21.60
2016,08,26,09,31,21.60
2016,08,26,09,32,21.60
2016,08,26,09,33,21.60
2016,08,26,09,34,21.50
2016,08,26,09,35,21.40
2016,08,26,09,36,21.40
2016,08,26,09,37,21.40
2016,08,26,09,38,21.50
2016,08,26,09,39,21.60
2016,08,26,09,40,21.60
2016,08,26,09,41,21.60
2016,08,26,09,42,21.60
2016,08,26,09,43,21.70
2016,08,26,09,44,21.80
2016,08,26,09,45,21.90
2016,08,26,09,46,22.00
2016,08,26,09,47,22.10
2016,08,26,09,48,22.20
2016,08,26,09,49,22.30
2016,08,26,09,50,22.40
2016,08,26,09,51,22.50
2016,08,26,09,52,22.50
2016,08,26,09,53,22.60
2016,08,26,09,54,22.70
2016,08,26,09,55,22.70
2016,08,26,09,56,22.80
2016,08,26,09,57,22.80
2016,08,26,09,58,22.90
2016,08,26,09,59,23.00
2016,08,26,10,00,23.20
2016,08,26,10,01,23.30
2016,08,26,10,02,23.40
2016,08,26,10,03,23.60
2016,08,26,10,04,23.70
2016,08,26,10,05,23.70
2016,08,26,10,06,23.70
2016,08,26,10,07,23.80
2016,08,26,10,08,23.80
2016,08,26,10,09,23.90
2016,08,26,10,10,23.90
2016,08,26,10,11,24.00
2016,08,26,10,12,24.10
2016,08,26,10,13,24.10
2016,08,26,10,14,24.10
2016,08,26,10,15,24.10
2016,08,26,10,16,24.10
2016,08,26,10,17,24.10
2016,08,26,10,18,24.10
2016,08,26,10,19,24.20
2016,08,26,10,20,24.20
2016,08,26,10,21,24.20
2016,08,26,10,22,24.20
2016,08,26,10,23,24.20
2016,08,26,10,24,24.20
2016,08,26,10,25,24.20
2016,08,26,10,26,24.10
2016,08,26,10,27,23.90
2016,08,26,10,28,23.70
2016,08,26,10,29,23.40
2016,08,26,10,30,23.20
2016,08,26,10,31,22.90
2016,08,26,10,32,22.70
2016,08,26,10,33,22.40
2016,08,26,10,34,22.20
2016,08,26,10,35,22.00
2016,08,26,10,36,21.90
2016,08,26,10,37,21.60
2016,08,26,10,38,21.60
2016,08,26,10,39,21.40
2016,08,26,10,40,21.30
2016,08,26,10,41,21.30
2016,08,26,10,42,21.20
2016,08,26,10,43,21.20
2016,08,26,10,44,21.20
2016,08,26,10,45,21.20
2016,08,26,10,46,21.20
2016,08,26,10,47,21.20
2016,08,26,10,48,21.20
2016,08,26,10,49,21.30
2016,08,26,10,50,21.30
2016,08,26,10,51,21.40
2016,08,26,10,52,21.40
2016,08,26,10,53,21.40
2016,08,26,10,54,21.40
2016,08,26,10,55,21.40
2016,08,26,10,56,21.40
2016,08,26,10,57,21.50
2016,08,26,10,58,21.60
2016,08,26,10,59,21.60
2016,08,26,11,00,21.60
2016,08,26,11,01,21.60
2016,08,26,11,02,21.50
2016,08,26,11,03,21.40
2016,08,26,11,04,21.40
2016,08,26,11,05,21.40
2016,08,26,11,06,21.50
2016,08,26,11,07,21.60
2016,08,26,11,08,21.60
2016,08,26,11,09,21.60
2016,08,26,11,10,21.60
2016,08,26,11,11,21.60
2016,08,26,11,12,21.60
2016,08,26,11,13,21.70
2016,08,26,11,14,21.70
2016,08,26,11,15,21.80
2016,08,26,11,16,21.90
2016,08,26,11,17,21.90
2016,08,26,11,18,21.90
2016,08,26,11,19,21.90
2016,08,26,11,20,21.90
2016,08,26,11,21,22.00
2016,08,26,11,22,22.00
2016,08,26,11,23,22.20
2016,08,26,11,24,22.30
2016,08,26,11,25,22.40
2016,08,26,11,26,22.40
2016,08,26,11,27,22.40
2016,08,26,11,28,22.40
2016,08,26,11,29,22.40
2016,08,26,11,30,22.40
2016,08,26,11,31,22.60
2016,08,26,11,32,22.60
2016,08,26,11,33,22.80
2016,08,26,11,34,22.90
2016,08,26,11,35,23.10
2016,08,26,11,36,23.20
2016,08,26,11,37,23.20
2016,08,26,11,38,23.10
2016,08,26,11,39,23.10
2016,08,26,11,40,23.10
2016,08,26,11,41,23.10
2016,08,26,11,42,23.10
2016,08,26,11,43,23.10
2016,08,26,11,44,23.00
2016,08,26,11,45,22.90
2016,08,26,11,46,22.90
2016,08,26,11,47,22.90
2016,08,26,11,48,22.90
2016,08,26,11,49,22.80
2016,08,26,11,50,22.70
2016,08,26,11,51,22.70
2016,08,26,11,52,22.60
2016,08,26,11,53,22.50
2016,08,26,11,54,22.50
2016,08,26,11,55,22.50
2016,08,26,11,56,22.50
2016,08,26,11,57,22.50
2016,08,26,11,58,22.50
2016,08,26,11,59,22.40
2016,08,26,12,00,22.40
2016,08,26,12,01,22.40
2016,08,26,12,02,22.40
2016,08,26,12,03,22.40
2016,08,26,12,04,22.50
2016,08,26,12,05,22.50
2016,08,26,12,06,22.60
2016,08,26,12,07,22.60
2016,08,26,12,08,22.60
2016,08,26,12,09,22.60
2016,08,26,12,10,22.70
2016,08,26,12,11,22.70
2016,08,26,12,12,22.70
2016,08,26,12,13,22.70
2016,08,26,12,14,22.70
2016,08,26,12,15,22.70
2016,08,26,12,16,22.70
2016,08,26,12,17,22.80
2016,08,26,12,18,23.00
2016,08,26,12,19,23.10
2016,08,26,12,20,23.10
2016,08,26,12,21,23.10
2016,08,26,12,22,23.10
2016,08,26,12,23,23.10
2016,08,26,12,24,23.00
2016,08,26,12,25,23.00
2016,08,26,12,26,23.10
2016,08,26,12,27,23.10
2016,08,26,12,28,23.10
2016,08,26,12,29,23.10
2016,08,26,12,30,23.00
2016,08,26,12,31,22.90
2016,08,26,12,32,22.90
2016,08,26,12,33,22.90
2016,08,26,12,34,22.90
2016,08,26,12,35,22.90
2016,08,26,12,36,22.90
2016,08,26,12,37,22.90
2016,08,26,12,38,23.00
2016,08,26,12,39,23.10
2016,08,26,12,40,23.00
2016,08,26,12,41,22.90
2016,08,26,12,42,22.90
2016,08,26,12,43,22.90
2016,08,26,12,44,22.90
2016,08,26,12,45,23.00
2016,08,26,12,46,23.10
2016,08,26,12,47,23.20
2016,08,26,12,48,23.30
2016,08,26,12,49,23.40
2016,08,26,12,50,23.50
2016,08,26,12,51,23.60
2016,08,26,12,52,23.80
2016,08,26,12,53,23.90
2016,08,26,12,54,24.10
2016,08,26,12,55,24.20
2016,08,26,12,56,24.30
2016,08,26,12,57,24.40
2016,08,26,12,58,24.40
2016,08,26,12,59,24.40
2016,08,26,13,00,24.40
2016,08,26,13,01,24.40
2016,08,26,13,02,24.40
2016,08,26,13,03,24.30
2016,08,26,13,04,24.30
2016,08,26,13,05,24.20
2016,08,26,13,06,24.30
2016,08,26,13,07,24.30
2016,08,26,13,08,24.30
2016,08,26,13,09,24.30
2016,08,26,13,10,24.30
2016,08,26,13,11,24.20
2016,08,26,13,12,24.10
2016,08,26,13,13,24.10
2016,08,26,13,14,24.00
2016,08,26,13,15,23.90
2016,08,26,13,16,23.80
2016,08,26,13,17,23.80
2016,08,26,13,18,23.80
2016,08,26,13,19,23.80
2016,08,26,13,20,23.80
2016,08,26,13,21,23.80
2016,08,26,13,22,23.80
2016,08,26,13,23,23.80
2016,08,26,13,24,23.80
2016,08,26,13,25,23.80
2016,08,26,13,26,23.80
2016,08,26,13,27,23.70
2016,08,26,13,28,23.70
2016,08,26,13,29,23.70
2016,08,26,13,30,23.70
2016,08,26,13,31,23.70
2016,08,26,13,32,23.70
2016,08,26,13,33,23.70
2016,08,26,13,34,23.90
2016,08,26,13,35,24.00
2016,08,26,13,36,24.10
2016,08,26,13,37,24.10
2016,08,26,13,38,24.20
2016,08,26,13,39,24.20
2016,08,26,13,40,24.20
2016,08,26,13,41,24.20
2016,08,26,13,42,24.20
2016,08,26,13,43,24.20
2016,08,26,13,44,24.30
2016,08,26,13,45,24.40
2016,08,26,13,46,24.40
2016,08,26,13,47,24.50
2016,08,26,13,48,24.60
2016,08,26,13,49,24.60
2016,08,26,13,50,24.70
2016,08,26,13,51,24.90
2016,08,26,13,52,24.90
2016,08,26,13,53,25.00
2016,08,26,13,54,25.10
2016,08,26,13,55,25.20
2016,08,26,13,56,25.20
2016,08,26,13,57,25.40
2016,08,26,13,58,25.40
2016,08,26,13,59,25.50
2016,08,26,14,00,25.50
2016,08,26,14,01,25.60
2016,08,26,14,02,25.70
2016,08,26,14,03,25.80
2016,08,26,14,04,26.00
2016,08,26,14,05,26.10
2016,08,26,14,06,26.20
2016,08,26,14,07,26.30
2016,08,26,14,08,26.50
2016,08,26,14,09,26.60
2016,08,26,14,10,26.70
2016,08,26,14,11,26.80
2016,08,26,14,12,26.80
2016,08,26,14,13,27.00
2016,08,26,14,14,27.10
2016,08,26,14,15,27.20
2016,08,26,14,16,27.30
2016,08,26,14,17,27.20
2016,08,26,14,18,27.20
2016,08,26,14,19,27.20
2016,08,26,14,20,27.10
2016,08,26,14,21,27.00
2016,08,26,14,22,26.90
2016,08,26,14,23,26.90
2016,08,26,14,24,26.80
2016,08,26,14,25,26.80
2016,08,26,14,26,26.80
2016,08,26,14,27,26.80
2016,08,26,14,28,26.80
2016,08,26,14,29,26.90
2016,08,26,14,30,27.00
2016,08,26,14,31,27.10
2016,08,26,14,32,27.20
2016,08,26,14,33,27.30
2016,08,26,14,34,27.30
2016,08,26,14,35,27.30
2016,08,26,14,36,27.30
2016,08,26,14,37,27.50
2016,08,26,14,38,27.60
2016,08,26,14,39,27.70
2016,08,26,14,40,27.70
2016,08,26,14,41,27.90
2016,08,26,14,42,27.90
2016,08,26,14,43,28.00
2016,08,26,14,44,28.00
2016,08,26,14,45,28.00
2016,08,26,14,46,28.00
2016,08,26,14,47,28.00
2016,08,26,14,48,28.10
2016,08,26,14,49,27.80
2016,08,26,14,50,27.80
2016,08,26,14,51,27.80
2016,08,26,14,52,27.80
2016,08,26,14,53,27.90
2016,08,26,14,54,27.90
2016,08,26,14,55,27.90
2016,08,26,14,56,27.90
2016,08,26,14,57,28.00
2016,08,26,14,58,28.10
2016,08,26,14,59,28.00
2016,08,26,15,00,28.00
2016,08,26,15,01,28.10
2016,08,26,15,02,28.10
2016,08,26,15,03,28.20
2016,08,26,15,04,28.30
2016,08,26,15,05,28.30
2016,08,26,15,06,28.40
2016,08,26,15,07,28.50
2016,08,26,15,08,28.50
2016,08,26,15,09,28.40
2016,08,26,15,10,28.40
2016,08,26,15,11,28.40
2016,08,26,15,12,28.50
2016,08,26,15,13,28.60
2016,08,26,15,14,28.70
2016,08,26,15,15,28.80
2016,08,26,15,16,28.90
2016,08,26,15,17,28.90
2016,08,26,15,18,28.90
2016,08,26,15,19,28.90
2016,08,26,15,20,28.80
2016,08,26,15,21,28.70
2016,08,26,15,22,28.60
2016,08,26,15,23,28.60
2016,08,26,15,24,28.60
2016,08,26,15,25,28.60
2016,08,26,15,26,28.60
2016,08,26,15,27,28.50
2016,08,26,15,28,28.40
2016,08,26,15,29,28.40
2016,08,26,15,30,28.40
2016,08,26,15,31,28.40
2016,08,26,15,32,28.40
2016,08,26,15,33,28.40
2016,08,26,15,34,28.50
2016,08,26,15,35,28.60
2016,08,26,15,36,28.60
2016,08,26,15,37,28.50
2016,08,26,15,38,28.40
2016,08,26,15,39,28.40
2016,08,26,15,40,28.40
2016,08,26,15,41,28.60
2016,08,26,15,42,28.70
2016,08,26,15,43,28.80
2016,08,26,15,44,28.90
2016,08,26,15,45,28.90
2016,08,26,15,46,28.90
2016,08,26,15,47,28.90
2016,08,26,15,48,29.00
2016,08,26,15,49,29.10
2016,08,26,15,50,29.10
2016,08,26,15,51,29.00
2016,08,26,15,52,28.90
2016,08,26,15,53,28.90
2016,08,26,15,54,28.90
2016,08,26,15,55,28.80
2016,08,26,15,56,28.90
2016,08,26,15,57,28.90
2016,08,26,15,58,28.90
2016,08,26,15,59,28.90
2016,08,26,16,00,28.90
2016,08,26,16,01,28.90
2016,08,26,16,02,28.90
2016,08,26,16,03,28.90
2016,08,26,16,04,28.90
2016,08,26,16,05,29.00
2016,08,26,16,06,29.10
2016,08,26,16,07,29.10
2016,08,26,16,08,29.10
2016,08,26,16,09,29.10
2016,08,26,16,10,29.10
2016,08,26,16,11,29.10
2016,08,26,16,12,29.10
2016,08,26,16,13,29.20
2016,08,26,16,14,29.20
2016,08,26,16,15,29.20
2016,08,26,16,16,29.30
2016,08,26,16,17,29.30
2016,08,26,16,18,29.30
2016,08,26,16,19,29.30
2016,08,26,16,20,29.20
2016,08,26,16,21,29.20
2016,08,26,16,22,29.20
2016,08,26,16,23,29.20
2016,08,26,16,24,29.20
2016,08,26,16,25,29.20
2016,08,26,16,26,29.30
2016,08,26,16,27,29.20
2016,08,26,16,28,29.10
2016,08,26,16,29,29.00
2016,08,26,16,30,28.90
2016,08,26,16,31,28.90
2016,08,26,16,32,28.80
2016,08,26,16,33,28.60
2016,08,26,16,34,28.60
2016,08,26,16,35,28.60
2016,08,26,16,36,28.60
2016,08,26,16,37,28.70
2016,08,26,16,38,28.70
2016,08,26,16,39,28.80
2016,08,26,16,40,28.90
2016,08,26,16,41,28.90
2016,08,26,16,42,28.90
2016,08,26,16,43,28.90
2016,08,26,16,44,28.60
2016,08,26,16,45,28.20
2016,08,26,16,46,27.80
2016,08,26,16,47,27.60
2016,08,26,16,48,27.40
2016,08,26,16,49,27.30
2016,08,26,16,50,27.30
2016,08,26,16,51,27.30
2016,08,26,16,52,27.30
2016,08,26,16,53,27.30
2016,08,26,16,54,27.30
2016,08,26,16,55,27.40
2016,08,26,16,56,27.40
2016,08,26,16,57,27.60
2016,08,26,16,58,27.60
2016,08,26,16,59,27.70
2016,08,26,17,00,27.70
2016,08,26,17,01,27.70
2016,08,26,17,02,27.50
2016,08,26,17,03,27.20
2016,08,26,17,04,26.90
2016,08,26,17,05,26.60
2016,08,26,17,06,26.60
2016,08,26,17,07,26.50
2016,08,26,17,08,26.40
2016,08,26,17,09,26.30
2016,08,26,17,10,26.20
2016,08,26,17,11,26.10
2016,08,26,17,12,25.90
2016,08,26,17,13,25.70
2016,08,26,17,14,25.40
2016,08,26,17,15,25.30
2016,08,26,17,16,25.30
2016,08,26,17,17,25.30
2016,08,26,17,18,25.30
2016,08,26,17,19,25.30